Tracking 31027 objects as of 19-Jul-2025
HD Live streaming from Space Station
objects crossing your sky now

OPTUS B1 R/B(STAR 63F)

Track OPTUS B1 R/B(STAR 63F) now!


NORAD ID: 22089
Int'l Code: 1992-054C
Perigee: 385.3 km
Apogee: 36,167.4 km
Inclination: 23.6 °
Period: 641.8 minutes
Semi major axis: 24647 km
RCS: 6.8742 m2 (large)
Launch date: August 13, 1992
Source: Australia (AUS)
Launch site: Xichang Space Center, China (XSC)

Note: This is a ROCKET BODY
Your satellite tracking list
STARLINK-1578
Track 1 satellite(s)




NASA's NSSDC Master Catalog

Two Line Element Set (TLE):
1 22089U 92054C   25199.73573923  .00000437  00000-0  13797-2 0  9999
2 22089  23.5871 331.1391 7258825 124.9303 325.5395  2.24361172265462
Source of the keplerian elements: AFSPC